Content
SEND FEEDBACK

Daily
Averages
Monthly
Summary
United States of America

OAKBROOK TERRACE, ILLINOIS


Home > North America > United States > Illinois
Elevation: 715 feet     Latitude: 41 51N     Longitude: 087 58W

WEATHER
 
SELECT A DAY
Number of Records: 198,991;   Date Range: 1/1/95 - 9/30/14
 
SHARE

PRINT THIS DATA

[ ← Previous Day ]
WEATHER ALMANAC - AUGUST 18, 2014
[ Next Day → ]
[ °C ]   °F
Weather ElementAverageHighLow
Temperature71.4 °F82.4 °F (3:51 pm)64.4 °F (6:51 am)
Dewpoint61.7 °F64.9 °F (9:51 pm)59 °F (12:51 am)
Humidity72.6 %90 % (8:36 pm)51 % (8:51 am)
Barometer29.87 in29.94 in (12:51 am)29.78 in (6:51 pm)
Wind Speed4.3 mph12.7 mph (9:51 am)
Weather ElementAverage
Visibility8.9 mi
Wind DirectionESE (126.6 °)

Weather ElementTotal
Precipitation---
Cooling Degree Days8.4 (Base 65)
Growing Degree Days23.4 (Base 50)
Averaged from 32 records on August 18, 2014
WEATHER CONDITIONS BREAKOUT
WIND DIRECTION BREAKOUT
WEATHER BY HOUR - AUGUST 18, 2014
[ °C ]   °F
Local TimeTemperatureDewpointHumidityBarometerVisibilityWind DirectionWind SpeedGust SpeedPrecipitationEventsConditions
12:51 AM64.4 °F59.0 °F83 %29.94 in10.0 miNE (40°)5.8 mphOvercast
1:51 AM64.9 °F59.0 °F81 %29.91 in10.0 miNNE (30°)6.9 mphMostly Cloudy
2:51 AM64.9 °F59.0 °F81 %29.91 in10.0 miNNE (20°)6.9 mphOvercast
3:39 AM64.9 °F60.1 °F84 %29.92 in10.0 miCalmOvercast
3:51 AM64.9 °F60.1 °F84 %29.91 in10.0 miNorth (350°)4.6 mphOvercast
4:51 AM66.0 °F60.1 °F81 %29.91 in10.0 miNNW (330°)3.5 mphOvercast
5:38 AM66.0 °F60.1 °F81 %29.92 in10.0 miNNW (330°)3.5 mphOvercast
5:51 AM66.0 °F60.1 °F81 %29.91 in10.0 miCalmOvercast
6:51 AM66.0 °F60.1 °F81 %29.91 in10.0 miCalmOvercast
7:35 AM66.0 °F62.1 °F87 %29.92 in4.0 miNorth (360°)3.5 mphOvercast
7:51 AM66.0 °F63.0 °F90 %29.91 in3.0 miCalmOvercast
8:01 AM66.0 °F61.0 °F84 %29.92 in5.0 miCalmHaze
8:18 AM66.0 °F61.0 °F84 %29.92 in4.0 miCalmHaze
8:25 AM66.9 °F61.0 °F81 %29.92 in5.0 miNNE (30°)3.5 mphHaze
8:51 AM66.9 °F61.0 °F81 %29.91 in5.0 miCalmHaze
9:51 AM69.8 °F60.8 °F73 %29.92 in10.0 miCalmOvercast
10:09 AM70.0 °F61.0 °F73 %29.91 in10.0 miVariable3.5 mphOvercast
10:51 AM71.1 °F61.0 °F70 %29.90 in10.0 miEast (90°)3.5 mphOvercast
11:23 AM73.0 °F62.1 °F68 %29.90 in10.0 miVariable4.6 mphMostly Cloudy
12:20 PM75.0 °F62.1 °F64 %29.89 in10.0 miVariable4.6 mphScattered Clouds
12:51 PM77.0 °F62.1 °F60 %29.88 in10.0 miSE (140°)3.5 mphScattered Clouds
1:51 PM80.1 °F63.0 °F56 %29.86 in10.0 miSouth (180°)5.8 mphScattered Clouds
2:51 PM81.0 °F63.0 °F54 %29.83 in10.0 miSSW (210°)5.8 mphScattered Clouds
3:51 PM82.4 °F62.6 °F51 %29.83 in10.0 miSW (220°)10.4 mphScattered Clouds
4:51 PM82.0 °F62.1 °F51 %29.80 in10.0 miSW (230°)9.2 mphScattered Clouds
5:51 PM81.0 °F63.0 °F54 %29.79 in10.0 miSW (220°)12.7 mphScattered Clouds
6:51 PM80.1 °F63.0 °F56 %29.78 in10.0 miSW (220°)9.2 mphPartly Cloudy
7:51 PM78.1 °F64.0 °F62 %29.78 in10.0 miSW (230°)5.8 mphPartly Cloudy
8:51 PM75.2 °F64.4 °F69 %29.80 in10.0 miSSW (210°)5.8 mphPartly Cloudy
9:51 PM75.0 °F64.9 °F71 %29.79 in10.0 miSSW (210°)4.6 mphClear
10:51 PM73.9 °F64.9 °F73 %29.78 in10.0 miSSW (200°)5.8 mphClear
11:51 PM73.4 °F64.4 °F73 %29.80 in10.0 miSSW (200°)3.5 mphPartly Cloudy
Hourly data recorded from KORD, located miles away from Oakbrook Terrace, Illinois







STORIES FROM OUR PARTNERS